Location: Stoke Bliss
(52.2667°N, 2.5167°W)
Time: 08:21:58
(UTC+00:00)

Cosmos 2242 Rocket - Visible Passes

Search period start: 21 June 2021 00:00
Search period end: 01 July 2021 00:00
Orbit: 619 x 651 km, 82.5° (Epoch: 20 June)

Date Brightness Start Highest point End Pass type
(mag) Time Alt. Az. Time Alt. Az. Time Alt. Az.
26 Jun 7.0 03:02:55 10° NNE 03:04:46 12° ENE 03:06:36 10° E visible
29 Jun 7.2 02:32:39 10° NE 02:33:27 10° NE 02:34:15 10° ENE visible
30 Jun 6.5 02:53:13 10° NNE 02:56:17 18° ENE 02:59:18 10° ESE visible
